Regional Weather Roundup
Issued by NWS

Home | Current Version | Previous Version | Text Only | Print | Product List | Glossary Off
Versions: 1 2 3 4 5 6 7 8 9 10 11 12 13 14 15 16 17 18 19 20 21 22 23 24 25 26 27 28 29 30 31 32 33 34 35 36 37 38 39 40 41 42 43 44 45 46 47 48 49 50

000
ASUS43 KOAX 180102
RWRNE

WEATHER ROUNDUP FOR NEBRASKA
NATIONAL WEATHER SERVICE OMAHA NE
700 PM CST WED DEC 17 2014

NOTES: SATELLITE DATA IS BEING USED TO AUGMENT CLOUD COVER ABOVE
       12000 FEET.
       "FAIR" INDICATES FEW OR NO CLOUDS BELOW 12,000 FEET WITH NO
       SIGNIFICANT WEATHER AND/OR OBSTRUCTIONS TO VISIBILITY.

  * THESE STATIONS DO NOT REPORT WEATHER SUCH AS RAIN...SNOW OR FOG.

NEZ001>004-019>022-054>056-180200-
NEBRASKA PANHANDLE

CITY           SKY/WX    TMP DP  RH WIND       PRES   REMARKS
SCOTTSBLUFF    CLOUDY    19  17  92 E9        29.98R FOG     WCI   8
ALLIANCE       CLOUDY    22  21  96 S9        29.97S FOG     WCI  12
CHADRON          N/A     17  14  88 W3        30.00R
SIDNEY         CLOUDY    22  20  92 S10       29.98S FOG     WCI  11
$$

NEZ057>060-069>072-079>082-180200-
SOUTHWEST NEBRASKA

CITY           SKY/WX    TMP DP  RH WIND       PRES   REMARKS
NORTH PLATTE   CLOUDY    22  19  89 S7        30.10R WCI  13
IMPERIAL       CLOUDY    24  21  88 SE7       30.06S FOG     WCI  16
MCCOOK         FOG       24  23  96 E6        30.12R VSB 1   WCI  17
$$

NEZ005>010-023>029-035>040-094-180200-
NORTH CENTRAL NEBRASKA

CITY           SKY/WX    TMP DP  RH WIND       PRES   REMARKS
VALENTINE      CLOUDY    22  19  89 S10       30.10R WCI  11
AINSWORTH      CLOUDY    21  19  95 SE7       30.11R FOG     WCI  12
BROKEN BOW     CLOUDY    22  20  92 SE5       30.13R WCI  16
ORD            CLOUDY    23  19  85 E5        30.16R WCI  17
$$

NEZ041-046>049-061>064-073>077-083>087-180200-
SOUTH CENTRAL NEBRASKA

CITY           SKY/WX    TMP DP  RH WIND       PRES   REMARKS
GRAND ISLAND   MOCLDY    24  18  77 SE6       30.19S WCI  17
AURORA         CLOUDY    25  19  77 SE8       30.19S WCI  16
HASTINGS       CLOUDY    24  17  74 E5        30.17R WCI  18
KEARNEY *      CLOUDY    25  19  80 E9        30.16R WCI  15
$$

NEZ011>018-030>034-042>045-180200-
NORTHEAST NEBRASKA

CITY           SKY/WX    TMP DP  RH WIND       PRES   REMARKS
NORFOLK        CLOUDY    25  16  68 E7        30.20F WCI  17
BLAIR          CLOUDY    27  19  72 N5        30.24S WCI  22
COLUMBUS *     CLOUDY    25  16  68 E9        30.23S WCI  15
FREMONT        CLOUDY    27  19  72 NE5       30.25S WCI  22
TEKAMAH        CLOUDY    27  19  72 N6        30.27S WCI  20
$$

NEZ050>053-065>068-078-088>093-180200-
SOUTHEAST NEBRASKA

CITY           SKY/WX    TMP DP  RH WIND       PRES   REMARKS
LINCOLN        CLOUDY    26  17  68 SE6       30.25S WCI  19
OMAHA EPPLEY   CLOUDY    28  17  63 E3        30.27F
FALLS CITY     CLOUDY    28  21  75 E5        30.25R WCI  23
$$

NEZ044-045-051>053-067-180200-
OMAHA AREA

CITY           SKY/WX    TMP DP  RH WIND       PRES   REMARKS
OMAHA EPPLEY   CLOUDY    28  17  63 E3        30.27F
BLAIR          CLOUDY    27  19  72 N5        30.24S WCI  22
FREMONT        CLOUDY    27  19  72 NE5       30.25S WCI  22
OFFUTT AFB     CLOUDY    28  18  67 E6        30.26S WCI  21
$$



USA.gov is the U.S. government's official web portal to all federal, state and local government web resources and services.